Location: Smithsonian NASM Public Observatory
(38.8879°N, 77.0185°W)
Time: 19:44:09
(UTC-05:00)

Daily predictions for brighter satellites

Satellite Brightness Start Highest point End
(mag) Time Altitude Azimuth Time Altitude Azimuth Time Altitude Azimuth
NOSS 3-2 (C) 4.0 18:16:31 10° SW 18:22:22 63° NW 18:28:51 10° NNE
Cosmos 2219 Rocket 4.2 18:21:54 10° NW 18:26:57 34° WSW 18:31:58 10° SSW
SL-8 R/B 3.9 18:22:12 10° WSW 18:26:58 70° NNW 18:31:45 10° NE
ALOS 2.4 18:24:05 10° S 18:28:45 84° WSW 18:33:27 10° NNW
MTI 3.7 18:26:05 10° NNE 18:29:16 86° E 18:32:28 10° SSW
Cosmos 44 3.5 18:28:49 10° NNW 18:33:50 61° ENE 18:39:03 10° SE
MONITOR-E 4.4 18:32:11 10° S 18:35:11 70° W 18:38:12 10° NNW
FENGYUN 3A 3.9 18:32:27 10° S 18:37:50 76° WSW 18:43:17 10° NNW
Cosmos 2227 Rocket 3.4 18:36:26 10° SW 18:41:50 45° WNW 18:47:16 10° N
CENTAUR R/B 2.4 18:38:03 10° SSW 18:43:56 79° ESE 18:50:41 10° NE
Cosmos 2237 Rocket 3.2 18:38:50 10° NNW 18:44:15 50° WSW 18:49:39 10° S
Cosmos 1378 Rocket 3.7 18:40:50 10° N 18:45:09 51° E 18:49:27 10° SSE
SL-16 R/B 2.1 18:43:25 10° NNW 18:49:06 71° ENE 18:54:43 10° SSE
Cosmos 1633 2.4 18:48:22 10° S 18:51:55 89° ENE 18:55:30 10° N
Cosmos 1782 Rocket 4.0 18:48:29 10° SSE 18:52:37 40° E 18:56:46 10° NNE
SJ-6B 3.4 18:50:13 10° SE 18:53:35 31° ENE 18:57:01 10° N
Lacrosse 5 3.9 18:50:56 10° WNW 18:55:14 29° WSW 18:59:32 10° S
Cosmos 2297 Rocket 3.5 18:50:20 10° SW 18:55:37 41° WNW 19:00:58 10° N
H-2A R/B 2.7 18:52:19 10° SSE 18:56:14 88° ENE 19:00:10 10° N
Sich 1 Rocket 3.6 18:53:52 10° S 18:58:19 63° E 19:02:45 10° NNE
ERS-2 2.0 18:58:29 10° SSE 19:02:09 70° ENE 19:05:50 10° N
Cosmos 1464 Rocket 3.9 18:56:09 10° N 19:02:19 81° E 19:08:27 10° S
Cosmos 1603 4.4 19:02:30 10° N 19:07:35 33° ENE 19:10:05 23° ESE
Meteor 1-20 Rocket 4.4 19:02:01 10° SSW 19:07:43 80° W 19:13:33 10° N
BREEZE-M R/B 3.9 19:06:06 10° NW 19:08:41 47° NE 19:12:05 22° E
Okean 1 3.2 19:05:26 10° N 19:09:25 66° E 19:13:20 10° SSE
Iridium 4 Rocket 3.1 19:05:08 10° N 19:09:58 85° E 19:14:22 10° S
Cosmos 1452 Rocket 4.2 19:07:31 10° NNW 19:12:41 58° WSW 19:17:48 10° S
Okean 2 Rocket 3.4 19:08:52 10° SSE 19:12:57 40° E 19:17:04 10° NNE
BREEZE-M DEB (TANK) 2.7 19:12:17 10° NW 19:14:28 30° NNE 19:14:37 30° NE
Cosmos 1812 4.4 19:11:02 10° NNW 19:14:35 36° W 19:18:09 10° SSW
CZ-2D R/B 3.4 19:12:22 12° SSE 19:15:49 50° ENE 19:19:37 10° N
Cosmos 1048 Rocket 4.1 19:10:50 10° SSW 19:16:10 78° WNW 19:21:28 10° NNE
Cosmos 2263 Rocket 3.3 19:20:03 10° SSE 19:23:04 24° SE 19:23:04 24° SE
Cosmos 1602 3.6 19:22:50 10° S 19:26:44 82° E 19:30:39 10° N
OAO 2 Rocket 3.6 19:23:38 10° WSW 19:28:28 54° S 19:29:58 38° ESE
Cosmos 921 Rocket 3.2 19:28:28 10° NNW 19:32:59 76° WSW 19:37:26 10° S
Cosmos 2034 Rocket 4.3 19:32:04 10° N 19:38:26 72° W 19:44:44 10° S
Cosmos 2346 Rocket 4.3 19:33:20 10° S 19:39:31 71° E 19:45:39 10° NNE
Tiangong 2 3.3 19:39:27 10° W 19:41:47 19° SW 19:42:18 18° SSW
Meteor 2-4 Rocket 3.7 19:37:52 10° N 19:43:36 58° ENE 19:45:18 41° SE
Meteor 1-19 Rocket 4.0 19:38:37 10° N 19:44:10 85° E 19:49:44 10° S
Cosmos 1437 Rocket 3.9 19:40:43 10° SSW 19:44:36 45° WNW 19:48:33 10° N
Meteor 1-5 Rocket 4.4 19:39:38 10° SSE 19:45:14 49° E 19:50:57 10° NNE
Cosmos 2227 4.2 19:40:01 10° SSW 19:45:45 81° WNW 19:51:30 10° NNE
Meteor 1-11 Rocket 3.5 19:42:19 10° S 19:47:50 74° E 19:53:31 10° NNE
ARGOS Delta rocket 4.0 19:43:33 10° N 19:48:21 70° WNW 19:52:53 10° SSW
Resurs 1-3 4.0 19:51:46 49° NNE 19:51:46 49° NNE 19:55:07 10° N
Cosmos 1634 Rocket 3.9 19:44:48 10° N 19:50:52 56° E 19:52:05 48° ESE
SeaSat 1 2.3 19:50:15 44° SSE 19:51:52 89° WSW 19:56:50 10° NNW
Gbstr 26 Del rocket 3.1 19:51:59 10° WSW 19:55:12 60° W 19:55:12 60° W
USA 215 3.4 19:52:59 23° NE 19:57:16 73° NW 20:03:46 10° WSW
Cosmos 2142 Rocket 4.5 19:54:04 10° N 20:00:19 58° E 20:00:21 58° E
Cosmos 1975 Rocket 4.2 19:56:25 10° NNW 20:00:38 44° W 20:04:53 10° SSW
Envisat 3.4 19:56:09 10° S 20:01:09 61° W 20:06:12 10° NNW
Cosmos 1939 Rocket 4.5 20:04:13 27° N 20:04:13 27° N 20:06:10 10° N
COSMOS 2455 2.7 19:58:21 10° SSW 20:04:21 80° ESE 20:05:36 58° NE
Resurs 01 Rocket 2.2 20:06:02 51° NNW 20:06:02 51° NNW 20:09:22 10° NNW
CZ-4C R/B 3.2 20:03:49 10° NNW 20:10:41 45° NE 20:10:42 45° NE
BREEZE-M DEB (TANK) 3.8 20:10:36 10° WSW 20:13:54 70° NNW 20:15:23 49° NNE
Cosmos 1943 3.6 20:08:45 10° NNW 20:13:10 51° NNE 20:13:10 51° NNE
Cosmos 494 Rocket 4.4 20:11:34 10° SSW 20:16:42 59° WNW 20:19:03 31° N
Cosmos 1110 Rocket 4.3 20:13:39 10° NNW 20:18:54 65° WSW 20:19:15 63° SW
USA 267 3.7 20:30:04 46° NNE 20:30:04 46° NNE 20:35:40 10° NW
ATLAS CENTAUR R/B 4.0 20:25:26 10° NNW 20:26:07 14° NNW 20:26:07 14° NNW
Cosmos 2263 Rocket 4.3 21:03:11 10° SW 21:04:56 19° WSW 21:04:56 19° WSW
CZ-4C R/B 4.5 21:52:24 10° NW 21:55:55 28° WNW 21:55:55 28° WNW
